Showing default

ORBCOMM FM 119, 41180

Orbit data source: Space-Track

ORBCOMM FM 119, 41180 is a payload satellite owned by Orbcomm (US) in LEO that was launched on Tue, 22 Dec 2015 UTC via an FALCON 9 launch vehicle from the Air Force Eastern Test Range (AFETR). Payload-class satellites include a variety of spacecraft equipped with specific instruments for various scientific and technological missions. These include communications satellites like Starlink; space stations such as the ISS; scientific satellites like the Hubble; Earth observation satellites from companies like Planet Labs, Umbra, and HawkEye 360; GPS; miniature CubeSats for education and research; and military/defense satellites.

Loading next visibility...
Identifier
41180, 2015-081B
Orbit
LEO
Country
Flag of USUS / ORB
Related business
Manufacturer
SNC Louisville
Mission
Non-operational Commercial Communications
Bus & Motor
SN-100A, Unknown motor
Mass
172 kg wet, 158 kg dry
Launch date (UTC)
2015-12-22 (10 years ago)
Launch vehicle
FALCON 9
Launch site
Air Force Eastern Test Range (AFETR)
Object type
Payload
Rocket body
Debris
Shape & HBR
Box + 1 Pan + 1 Ant, 5.3 m
Radar Cross Section
2.222 m², Medium (>0.1 m² and < 1m²)

Expand to show TLE details & history
Last TLE update: 14 hours ago

TLE from 14 hours ago
0 ORBCOMM FM 119
1 41180U 15081B   26104.62722104  .00000204  00000-0  79539-4 0  9999
2 41180  46.9998 211.8518 0001259 304.0251  56.0515 14.58728475549729
Epoch: 2026-04-14T15:03Z
TLE epoch observation values (Epoch: 2026-04-14T15:03:11.897Z)
Latitude
-0.00004°
Longitude
143.25144°
Altitude
697.001 km
Speed
7.509 km/s
True Right ascension
14h 07m 24s
True Declination
0° 00' 00"
Sunlit
Object was in full shadow at epoch
Visualization orbit readout
Latitude
Unknown
Longitude
Unknown
Altitude
Unknown
Speed
Unknown
Apparent Right ascension
Unknown
Apparent Declination
Unknown
Sunlit
N/A
Visualization observer readout
Local Sidereal Time
11:25:36
Azimuth
Unknown
Elevation
Unknown
Doppler factor
Unknown
Orbital elements
Apogee altitude
699.409 km
Perigee altitude
697.627 km
Semi-major axis
7,076.655 km
Eccentricity
0.00013
Inclination
46.9998°
RAAN
211.8518°
Arg. of periapsis
304.0251°
True anomaly
56.06347°
Mean anomaly
56.0515°
Eccentric anomaly
56.05748°
Mean motion
3.64587 °/min
Orbital period
98.74 mins
BSTAR
0.000079539
Loading maneuver chart data...
Computing Atmospheric mass density...
Loading historical data...
Loading historical data...
Loading historical data...
Loading historical data...
Loading historical data...
Loading historical data...
Loading historical data...

Documentation

Showing up to 5 results
|